Location: Unspecified
(0.0000°N, 0.0000°E)
Time: 03:50:55
(UTC+00:00)

Vanguard 1 - Pass Details

Date: 16 December 2023
Orbit: 653 x 3826 km, 34.3° (Epoch: 22 February)

Event Time Altitude Azimuth Distance (km) Brightness Sun altitude
Rises 20:40:15 0° 319° (NW) 6,703 14.4 -37.2°
Reaches altitude 10° 20:44:35 10° 325° (NW) 6,033 14.1 -38.1°
Enters shadow 20:59:24 44° 7° (N) 4,558 13.0 -41.3°
Maximum altitude 21:04:38 49° 36° (NE) 4,478 - -42.4°
Drops below altitude 10° 21:25:50 10° 104° (ESE) 6,434 - -46.8°
Sets 21:30:32 0° 110° (ESE) 7,165 - -47.7°
